Philadelphia, PA

2:09 PM EST on February 22, 2017 (GMT -0500)
Northeast Philadelphia

Weather History for KPNE - March, 2013

Change the Weather History Date:

Friday, March 15, 2013

  Actual Average Record
Temperature  
Mean Temperature 38 °F -  
Max Temperature 50 °F 47 °F 71 °F (2002)
Min Temperature 27 °F 30 °F 27 °F (2013)
Degree Days  
Heating Degree Days 26    
Moisture  
Dew Point 18 °F    
Average Humidity 42    
Maximum Humidity 53    
Minimum Humidity 32    
Precipitation  
Precipitation 0.00 in - - ()
Sea Level Pressure  
Sea Level Pressure 29.92 in    
Wind  
Wind Speed 9 mph (West)    
Max Wind Speed 18 mph    
Max Gust Speed 28 mph    
Visibility 10 miles    
Events      
Averages and records for this station are not official NWS values.
T = Trace of Precipitation, MM = Missing Value Source: NWS Daily Summary

Daily Weather History Graph

Daily Weather History Graph

Search for Another Location

Airport or City:

Trip Planner

Search our weather history database for the weather conditions in past years. The results will help you decide how hot, cold, wet, or windy it might be!

Date:

Astronomy

Mar. 15, 2013 Rise Set
Actual Time 7:11 AM EDT 7:07 PM EDT
Civil Twilight 6:44 AM EDT 7:34 PM EDT
Nautical Twilight 6:12 AM EDT 8:05 PM EDT
Astronomical Twilight 5:40 AM EDT 8:37 PM EDT
Moon 8:59 AM EDT (3/15) 11:18 PM EDT (3/15)
Length of Visible Light 12h 49m
Length of Day
11h 55m
Waxing Crescent, 15% of the Moon is Illuminated
Mar 15
Waxing Crescent
Mar 19
First Quarter
Mar 27
Full
Apr 3
Last Quarter
Apr 10
New

Hourly Weather History & Observations

Time (EDT) Temp. Windchill Dew Point Humidity Pressure Visibility Wind Dir Wind Speed Gust Speed Precip Events Conditions
12:54 AM 33.1 °F 26.1 °F 10.0 °F 38% 30.04 in 10.0 mi WNW 8.1 mph - N/A   Clear
1:54 AM 32.0 °F 23.0 °F 10.0 °F 40% 30.05 in 10.0 mi WNW 11.5 mph - N/A   Clear
2:54 AM 30.0 °F 23.2 °F 10.0 °F 43% 30.05 in 10.0 mi NW 6.9 mph - N/A   Clear
3:54 AM 28.9 °F 22.8 °F 10.9 °F 47% 30.04 in 10.0 mi West 5.8 mph - N/A   Clear
4:54 AM 28.0 °F 22.8 °F 10.9 °F 49% 30.04 in 10.0 mi West 4.6 mph - N/A   Clear
5:54 AM 28.0 °F 21.7 °F 12.0 °F 51% 30.04 in 10.0 mi West 5.8 mph - N/A   Clear
6:54 AM 27.0 °F 20.5 °F 12.0 °F 53% 30.04 in 10.0 mi West 5.8 mph - N/A   Clear
7:54 AM 30.0 °F 25.2 °F 14.0 °F 51% 30.05 in 10.0 mi West 4.6 mph - N/A   Clear
8:54 AM 33.1 °F 26.9 °F 15.1 °F 48% 30.04 in 10.0 mi West 6.9 mph - N/A   Clear
9:54 AM 35.1 °F 27.9 °F 14.0 °F 42% 30.02 in 10.0 mi WSW 9.2 mph - N/A   Partly Cloudy
10:54 AM 39.0 °F 29.9 °F 17.1 °F 41% 29.99 in 10.0 mi WSW 17.3 mph 20.7 mph N/A   Overcast
11:54 AM 42.1 °F 36.6 °F 19.9 °F 41% 29.94 in 10.0 mi SW 9.2 mph 16.1 mph N/A   Overcast
12:54 PM 43.0 °F 35.4 °F 21.0 °F 42% 29.91 in 10.0 mi West 16.1 mph 21.9 mph N/A   Overcast
1:54 PM 43.0 °F 36.8 °F 19.9 °F 40% 29.88 in 10.0 mi WSW 11.5 mph 23.0 mph N/A   Overcast
2:54 PM 48.0 °F - 23.0 °F 37% 29.85 in 10.0 mi WSW 18.4 mph 23.0 mph N/A   Overcast
3:54 PM 48.0 °F - 21.0 °F 34% 29.81 in 10.0 mi WSW 18.4 mph 26.5 mph N/A   Overcast
4:54 PM 48.9 °F - 21.0 °F 33% 29.77 in 10.0 mi SW 16.1 mph 27.6 mph N/A   Partly Cloudy
5:54 PM 50.0 °F - 21.0 °F 32% 29.76 in 10.0 mi SW 12.7 mph 20.7 mph N/A   Clear
6:54 PM 50.0 °F - 21.9 °F 33% 29.76 in 10.0 mi WSW 9.2 mph - N/A   Overcast
7:54 PM 50.0 °F - 23.0 °F 35% 29.77 in 10.0 mi WSW 9.2 mph - N/A   Overcast
8:54 PM 48.0 °F - 23.0 °F 37% 29.78 in 10.0 mi WSW 10.4 mph - N/A   Scattered Clouds
9:54 PM 44.1 °F 40.1 °F 24.1 °F 45% 29.79 in 10.0 mi West 6.9 mph - N/A   Clear
10:54 PM 46.9 °F - 28.9 °F 50% 29.80 in 10.0 mi WNW 8.1 mph - N/A   Partly Cloudy
11:54 PM 46.0 °F 43.9 °F 28.9 °F 51% 29.80 in 10.0 mi West 4.6 mph - N/A   Mostly Cloudy